STARLINK-36697, 67698

Orbit data source: Space-Track

STARLINK-36697, 67698 is a payload satellite owned by SpaceX/Seattle (US) in SSO that was launched on Sat, 07 Feb 2026 UTC via an FALCON 9 launch vehicle from the Air Force Western Test Range (AFWTR). Payload-class satellites include a variety of spacecraft equipped with specific instruments for various scientific and technological missions. These include communications satellites like Starlink; space stations such as the ISS; scientific satellites like the Hubble; Earth observation satellites from companies like Planet Labs, Umbra, and HawkEye 360; GPS; miniature CubeSats for education and research; and military/defense satellites.

Loading next visibility...
Identifier
67698, 2026-025F
Orbit
SSO
Country
Flag of USUS
Related business
Manufacturer
SpaceX/Seattle
Mission
Operational spacecraft
Bus & Motor
STARLINK V2MO, Unknown motor
Mass
575 kg wet, ~530 kg dry
Launch date (UTC)
2026-02-07 (2 months ago)
Launch vehicle
FALCON 9
Launch site
Air Force Western Test Range (AFWTR)
Object type
Payload
Rocket body
Debris
Shape & HBR
Unknown shape, 17.7 m
Radar Cross Section
RCS unknown

Expand to show TLE details & history
Last TLE update: 8 hours ago

TLE from 8 hours ago
0 STARLINK-36697
1 67698U 26025F   26104.05603367  .00016000  00000-0  49676-3 0  9996
2 67698  97.2877 216.2655 0000947  77.0117 283.1231 15.33452939 11431
Epoch: 2026-04-14T01:20Z
TLE epoch observation values (Epoch: 2026-04-14T01:20:41.309Z)
Latitude
-0.00004°
Longitude
-6.14438°
Altitude
468.484 km
Speed
7.632 km/s
True Right ascension
14h 25m 03s
True Declination
0° 00' 00"
Sunlit
Object was in full shadow at epoch
Visualization orbit readout
Latitude
Unknown
Longitude
Unknown
Altitude
Unknown
Speed
Unknown
Apparent Right ascension
Unknown
Apparent Declination
Unknown
Sunlit
N/A
Visualization observer readout
Local Sidereal Time
15:34:48
Azimuth
Unknown
Elevation
Unknown
Doppler factor
Unknown
Orbital elements
Apogee altitude
463.11 km
Perigee altitude
461.815 km
Semi-major axis
6,840.599 km
Eccentricity
0.00009
Inclination
97.2877°
RAAN
216.2655°
Arg. of periapsis
77.0117°
True anomaly
283.11253°
Mean anomaly
283.1231°
Eccentric anomaly
283.11782°
Mean motion
3.83621 °/min
Orbital period
93.84 mins
BSTAR
0.00049676
Loading maneuver chart data...
Computing Atmospheric mass density...
Loading historical data...
Loading historical data...
Loading historical data...
Loading historical data...
Loading historical data...
Loading historical data...
Loading historical data...

Documentation

Showing up to 5 results
|